This is the latest recevied weather packets stored in our database for station/object K6GMW. If no packets are shown the sender has not sent any weather packets the latest 1 day(s).
| Time | Temp. | Humidity | Pressure | Rain* | Wind** | Luminosity | Snow |
|---|---|---|---|---|---|---|---|
| 1777991165 | 21.67° C | 86% | 1008.2 hPa | 0 mm | 2.24 m/s, 197° | 93 W/m² | - |
| 1777990862 | 21.67° C | 86% | 1008.1 hPa | 0 mm | 4.02 m/s, 207° | 82 W/m² | - |
| 1777990559 | 21.67° C | 86% | 1008.1 hPa | 0 mm | 2.24 m/s, 169° | 130 W/m² | - |
| 1777990256 | 21.67° C | 86% | 1008.2 hPa | 0 mm | 4.02 m/s, 168° | 67 W/m² | - |
| 1777989953 | 21.67° C | 86% | 1008.2 hPa | 0 mm | 1.79 m/s, 187° | 64 W/m² | - |
| 1777989650 | 21.67° C | 86% | 1008.1 hPa | 0 mm | 4.02 m/s, 177° | 71 W/m² | - |
| 1777989346 | 21.67° C | 86% | 1008.2 hPa | 0 mm | 3.13 m/s, 184° | 64 W/m² | - |
| 1777989042 | 21.67° C | 86% | 1008.1 hPa | 0 mm | 1.79 m/s, 184° | 61 W/m² | - |
| 1777988738 | 21.67° C | 86% | 1008 hPa | 0 mm | 3.58 m/s, 196° | 55 W/m² | - |
| 1777988436 | 21.67° C | 86% | 1007.9 hPa | 0 mm | 3.58 m/s, 181° | 49 W/m² | - |
| 1777988133 | 21.67° C | 86% | 1007.9 hPa | 0 mm | 3.58 m/s, 182° | 43 W/m² | - |
| 1777987832 | 21.67° C | 86% | 1008.1 hPa | 0 mm | 3.13 m/s, 176° | 43 W/m² | - |
| 1777987525 | 21.67° C | 85% | 1008 hPa | 0 mm | 1.79 m/s, 180° | 38 W/m² | - |
| 1777987223 | 21.67° C | 85% | 1007.9 hPa | 0 mm | 2.68 m/s, 191° | 29 W/m² | - |
| 1777986919 | 21.67° C | 85% | 1007.9 hPa | 0 mm | 4.02 m/s, 186° | 28 W/m² | - |
| 1777986618 | 21.67° C | 85% | 1007.9 hPa | 0 mm | 3.58 m/s, 176° | 32 W/m² | - |
| 1777986315 | 21.67° C | 85% | 1007.9 hPa | 0 mm | 3.13 m/s, 190° | 28 W/m² | - |
| 1777986014 | 21.11° C | 85% | 1008 hPa | 0 mm | 2.68 m/s, 175° | 25 W/m² | - |
| 1777985710 | 21.11° C | 85% | 1008.1 hPa | 0 mm | 2.68 m/s, 193° | 24 W/m² | - |
| 1777985407 | 21.11° C | 85% | 1007.7 hPa | 0 mm | 3.13 m/s, 187° | 22 W/m² | - |
| 1777985103 | 21.11° C | 85% | 1007.9 hPa | 0 mm | 3.13 m/s, 173° | 26 W/m² | - |
| 1777984799 | 21.11° C | 85% | 1007.8 hPa | 0 mm | 3.58 m/s, 180° | 23 W/m² | - |
| 1777984496 | 21.11° C | 85% | 1007.6 hPa | 0 mm | 4.02 m/s, 203° | 16 W/m² | - |
| 1777984192 | 21.11° C | 85% | 1007.6 hPa | 0 mm | 2.68 m/s, 158° | 16 W/m² | - |
| 1777983890 | 21.11° C | 85% | 1007.4 hPa | 0 mm | 1.79 m/s, 180° | 14 W/m² | - |
* Rain latest hour (hover to see other rain measurements)
** Current wind speed in m/s (hover to see current wind gust speed)